Location: A�t Bou Chrif
(32.7193°N, 5.2385°W)
Time: 03:43:14
(UTC+00:00)

Cosmos 1346 Rocket - Pass Details

Date: 08 August 2020
Orbit: 533 x 545 km, 81.2° (Epoch: 20 September)

Event Time Altitude Azimuth Distance (km) Brightness Sun altitude
Rises 19:33:36 0° 194° (SSW) 2,680 6.2 -4.9°
Reaches altitude 10° 19:35:46 10° 197° (SSW) 1,795 5.4 -5.4°
Maximum altitude 19:39:40 63° 279° (W) 609 3.4 -6.1°
Drops below altitude 10° 19:43:38 10° 1° (N) 1,813 5.8 -6.9°
Sets 19:45:50 0° 4° (N) 2,711 6.6 -7.3°
